sat.trackr.live / text

‹ back to catalog

STARLINK-11460 [DTC]

NORAD 62069 · 2024-217N

PAYLOAD ACTIVE UNKNOWN

§ Identity

Operator
Country
US
Launch date
2024-11-24
Launch site
AFWTR
Launch vehicle
Mass (kg)
RCS (m²)

Purposes: comms

External: N2YO · Heavens-Above · Gunter

§ Orbital elements

Epoch: 2026-05-25T04:24:12.229632Z

Period
91.73 min
Inclination
53.1574°
Eccentricity
0.0000805
Mean motion
15.69755443 rev/d
Perigee alt
359.1 km
Apogee alt
360.1 km
Semi-major
6,737.7 km
B*
8.8728e-4
RAAN
54.4692°
Arg perigee
106.3320°
Mean anomaly
253.7786°
Rev number
8,712

§ Raw data

STARLINK-11460 [DTC]1 62069U 24217N   26145.18347488  .00108524  00000+0  88728-3 0  99952 62069  53.1574  54.4692 0000805 106.3320 253.7786 15.69755443 87123

JSON: /api/v1/satellites/62069 · /tle

For live sub-satellite position, see the globe view (requires WebGL).

§ Visibility from observer

Set your observer location to see the next 7 days of passes ≥ 10°. The values pass through the URL so the page stays shareable.

No JS? Fill the form by hand. The geolocation button needs JavaScript.